Location: Astronomy Club of Akron Observatory
(40.9700°N, 81.5606°W)
Time: 15:34:26
(UTC-04:00)

Hubble Space Telescope - Pass Details

Date: 22 July 2018
Orbit: 537 x 541 km, 28.5° (Epoch: 20 September)

Event Time Altitude Azimuth Distance (km) Brightness Sun altitude
Exits shadow 04:53:21 12° 183° (S) 1,664 2.9 -13.1°
Drops below altitude 10° 04:54:29 10° 167° (SSE) 1,778 3.1 -13.0°
Sets 04:58:00 0° 136° (SE) 2,666 4.4 -12.5°
